Location: Banff
(51.1667°N, 115.5667°W)
Time: 23:19:11
(UTC+00:00)

Vanguard 2 - All Passes

Search period start: 25 November 2020 00:00
Search period end: 05 December 2020 00:00
Orbit: 554 x 2937 km, 32.9° (Epoch: 25 November)

Date Brightness Start Highest point End Pass type
(mag) Time Alt. Az. Time Alt. Az. Time Alt. Az.
02 Dec - 17:21:51 10° S 17:22:32 10° S 17:23:11 10° S daylight
03 Dec - 17:38:21 10° SSW 17:40:01 11° S 17:41:32 10° S daylight
04 Dec - 15:46:53 10° SSW 15:50:02 13° S 15:52:43 10° SSE daylight
04 Dec - 17:55:41 10° SSW 17:57:28 11° SSW 17:59:04 10° S daylight
